Location: Scenic
(43.7797°N, 102.5549°W)
Time: 00:38:13
(UTC-07:00)

N. Korean satellite - Visible Passes

Search period start: 16 January 2018 00:00
Search period end: 26 January 2018 00:00
Orbit: 459 x 515 km, 97.2° (Epoch: 15 January)

Date Brightness Start Highest point End Pass type
(mag) Time Alt. Az. Time Alt. Az. Time Alt. Az.
16 Jan 7.3 06:23:52 10° NNE 06:27:16 54° E 06:30:38 10° S visible
16 Jan 9.4 18:35:18 10° SW 18:38:05 20° W 18:40:50 10° NW visible
17 Jan 8.9 06:00:33 10° NE 06:03:31 26° E 06:06:28 10° SSE visible
17 Jan 8.1 18:10:55 10° SSW 18:14:19 39° W 18:17:42 10° NNW visible
18 Jan 9.9 05:37:49 10° ENE 05:39:42 14° E 05:41:35 10° SE visible
18 Jan 6.6 17:47:00 10° S 17:50:38 81° WSW 17:54:12 10° NNW visible
19 Jan 6.4 06:46:19 10° N 06:49:46 71° WNW 06:53:11 10° SSW visible
19 Jan 6.7 17:23:31 10° SSE 17:27:00 48° ENE 17:30:27 10° N visible
19 Jan 10.2 18:59:46 10° WSW 19:00:47 11° W 19:01:46 10° WNW visible
20 Jan 7.4 06:22:42 10° NNE 06:26:05 53° E 06:29:28 10° S visible
20 Jan 9.4 18:34:10 10° SW 18:36:55 21° W 18:39:40 10° NW visible
21 Jan 9.0 05:59:23 10° NE 06:02:20 26° E 06:05:17 10° SSE visible
21 Jan 8.1 18:09:46 10° S 18:13:09 39° W 18:16:30 10° NNW visible
22 Jan 9.9 05:36:41 10° ENE 05:38:31 14° E 05:40:20 10° SE visible
22 Jan 6.6 17:45:53 10° S 17:49:27 83° WSW 17:53:00 10° NNW visible
23 Jan 6.8 17:22:23 10° SSE 17:25:49 47° ENE 17:29:13 10° N visible
23 Jan 10.2 18:58:33 10° WSW 18:59:34 11° W 19:00:36 10° WNW visible
24 Jan 7.5 06:21:29 10° NNE 06:24:53 51° E 06:28:16 10° S visible
24 Jan 9.4 18:32:59 10° SW 18:35:43 21° W 18:38:27 10° NW visible
25 Jan 9.0 05:58:11 10° NE 06:01:07 25° E 06:04:03 10° SSE visible
25 Jan 8.0 18:08:35 10° S 18:11:56 40° W 18:15:16 10° NNW visible
